Regional Weather Roundup
Issued by NWS

Current Version | Previous Version | Graphics & Text | Print | Product List | Glossary On
Versions: 1 2 3 4 5 6 7 8 9 10 11 12 13 14 15 16 17 18 19 20 21 22 23 24 25 26 27 28
000
ASUS44 KBMX 210210
RWRAL

ALABAMA REGIONAL WEATHER ROUNDUP
NATIONAL WEATHER SERVICE BIRMINGHAM AL
900 PM CDT SUN JUN 20 2021

NOTE: "FAIR" INDICATES FEW OR NO CLOUDS BELOW 12,000 FEET
WITH NO SIGNIFICANT WEATHER AND/OR OBSTRUCTIONS TO VISIBILITY.

THE REMARK "TC" DENOTES TEMPERATURE IN DEGREES CELSIUS.

ALZ001>011-014-016>018-020-210300-
NORTH ALABAMA

CITY           SKY/WX    TMP DP  RH WIND       PRES   REMARKS
MUSCLE SHOALS  CLEAR     83  70  64 S6        29.84R
HUNTSVILLE     CLEAR     80  73  79 SW6       29.86S
DECATUR        CLEAR     82  70  66 S8        29.86R
HALEYVILLE     FAIR      77  72  84 S6        29.91S
GADSDEN        CLEAR     76  74  93 CALM      29.90S
$$

ALZ012-013-022-023-030>036-040>044-210300-
WEST CENTRAL ALABAMA

CITY           SKY/WX    TMP DP  RH WIND       PRES   REMARKS
TUSCALOOSA     CLEAR     82  75  79 S5        29.88R
DEMOPOLIS      MOCLDY    81  75  82 SE7       29.89R
$$

ALZ015-024>026-033>036-041>044-210300-
CENTRAL ALABAMA

CITY           SKY/WX    TMP DP  RH WIND       PRES   REMARKS
BIRMINGHAM     CLEAR     81  70  69 S5        29.92R
MONTGOMERY     PTCLDY    82  74  76 S6        29.92R
SHELBY CO ARPT CLEAR     77  73  87 S3        29.91R
MAXWELL AFB    LGT RAIN  78  73  85 S3        29.89R
GREENVILLE     FAIR      81  72  74 SW8       29.93R
SELMA          MOCLDY    79  77  94 S6        29.90R
PRATTVILLE     FAIR      77  77  99 CALM      29.91R
BESSEMER       FAIR      77  75  93 S3        29.92R
TALLADEGA      NOT AVBL
PELL CITY      CLEAR     73  73 100 CALM      29.91R
SYLACAUGA      FAIR      76  74  92 CALM      29.92S
$$

ALZ019-021-028-029-037-038-045>048-210300-
EAST CENTRAL ALABAMA

CITY           SKY/WX    TMP DP  RH WIND       PRES   REMARKS
ANNISTON       CLEAR     76  72  87 CALM      29.91R
ALEXANDER CITY CLEAR     75  74  97 CALM      29.94R
AUBURN         CLEAR     77  73  87 CALM      29.96R
$$

ALZ051>064-210300-
SOUTHWEST ALABAMA

CITY           SKY/WX    TMP DP  RH WIND       PRES   REMARKS
MOBILE         MOCLDY    76  72  87 SW9       29.97R
BROOKLEY FIELD MOCLDY    79  73  82 SW7       29.97S
EVERGREEN      MOCLDY    81  72  74 SW10G17   29.95R
$$

ALZ049-050-065>069-210300-
SOUTHEAST ALABAMA

CITY           SKY/WX    TMP DP  RH WIND       PRES   REMARKS
DOTHAN         CLEAR     79  72  79 SW12      29.98R
OZARK          CLEAR     78  72  81 SW10      29.95R
TROY           PTCLDY    82  72  71 SW9       29.95R
EUFAULA        FAIR      81  73  76 SW5       29.94R
$$



USA.gov is the U.S. government's official web portal to all federal, state and local government web resources and services.